STARLINK-1504, 45746

Orbit data source: Space-Track

STARLINK-1504, 45746 is a payload satellite owned by SpaceX/Seattle (US) in LEO that was launched on Sat, 13 Jun 2020 UTC via an FALCON 9 launch vehicle from the Air Force Eastern Test Range (AFETR). Payload-class satellites include a variety of spacecraft equipped with specific instruments for various scientific and technological missions. These include communications satellites like Starlink; space stations such as the ISS; scientific satellites like the Hubble; Earth observation satellites from companies like Planet Labs, Umbra, and HawkEye 360; GPS; miniature CubeSats for education and research; and military/defense satellites.

Loading next visibility...
Identifier
45746, 2020-038S
Orbit
LEO
Country
Flag of USUS
Related business
Manufacturer
SpaceX/Seattle
Mission
Partially operational Commercial Communications
Bus & Motor
STARLINK, Unknown motor
Mass
260 kg wet, ~248 kg dry
Launch date (UTC)
2020-06-13 (6 years ago)
Launch vehicle
FALCON 9
Launch site
Air Force Eastern Test Range (AFETR)
Object type
Payload
Rocket body
Debris
Shape & HBR
Box + 1 Pan, 10.1 m
Radar Cross Section
13.562 m², Large (>1 m²)

Expand to show TLE details & history
Last TLE update: 19 hours ago

TLE from 19 hours ago
0 STARLINK-1504
1 45746U 20038S   25349.27726462  .00064918  00000-0  13463-2 0  9995
2 45746  53.0257 187.4061 0003626 104.6907 255.4501 15.45133882304426
Epoch: 2025-12-15T06:39Z
TLE epoch observation values (Epoch: 2025-12-15T06:39:15.663Z)
Latitude
0.00003°
Longitude
3.41272°
Altitude
432.497 km
Speed
7.653 km/s
True Right ascension
12h 29m 37s
True Declination
0° 00' 00"
Sunlit
Object was in daylight at epoch
Visualization orbit readout
Latitude
Unknown
Longitude
Unknown
Altitude
Unknown
Speed
Unknown
Apparent Right ascension
Unknown
Apparent Declination
Unknown
Sunlit
N/A
Visualization observer readout
Local Sidereal Time
00:27:04
Azimuth
Unknown
Elevation
Unknown
Doppler factor
Unknown
Orbital elements
Apogee altitude
433.734 km
Perigee altitude
428.796 km
Semi-major axis
6,809.402 km
Eccentricity
0.00036
Inclination
53.0257°
RAAN
187.4061°
Arg. of periapsis
104.6907°
True anomaly
255.40989°
Mean anomaly
255.4501°
Eccentric anomaly
255.42999°
Mean motion
3.8626 °/min
Orbital period
93.2 mins
BSTAR
0.0013463
Loading maneuver chart data...
Computing Atmospheric mass density...
Loading historical data...
Loading historical data...
Loading historical data...
Loading historical data...
Loading historical data...
Loading historical data...
Loading historical data...

Documentation

Showing up to 5 results
|